Regional Weather Roundup
Issued by NWS

Home | Current Version | Previous Version | Text Only | Print | Product List | Glossary Off
Versions: 1 2 3 4 5 6 7 8 9 10 11 12 13 14 15 16 17 18 19 20 21 22 23 24 25 26 27 28 29 30 31 32 33 34 35 36 37 38 39 40 41 42 43 44 45 46 47 48 49 50

000
ASUS43 KLMK 091010
RWRKY
KENTUCKY REGIONAL WEATHER ROUNDUP
NATIONAL WEATHER SERVICE LOUISVILLE KY
500 AM EST FRI DEC 09 2016

NOTE "FAIR" INDICATES FEW OR NO CLOUDS BELOW 12,000 FEET
WITH NO SIGNIFICANT WEATHER AND/OR OBSTRUCTIONS TO VISIBILITY.

KYZ001>023-026-027-061>063-070>075-091100-
WESTERN AND SOUTH CENTRAL KENTUCKY

CITY           SKY/WX    TMP DP  RH WIND       PRES   REMARKS
PADUCAH        PTCLDY    20  12  71 CALM      30.59S
HENDERSON      CLOUDY    25  10  54 N6        30.58S WCI  18
OWENSBORO      CLOUDY    25  15  66 NW15      30.58S WCI  13
HOPKINSVILLE   CLOUDY    23  15  72 NW5       30.56S WCI  17
BOWLING GREEN  CLOUDY    26  14  60 N7        30.56S WCI  18
GLASGOW        CLOUDY    25  16  70 NW8       30.54R WCI  16
$$

KYZ024-025-028>034-038-045-046-053-091100-
NORTH CENTRAL KENTUCKY

CITY           SKY/WX    TMP DP  RH WIND       PRES   REMARKS
LOUISVILLE/SDF FLURRIES  24  11  57 NW10      30.54S WCI  14
LOUISVILLE/LOU CLOUDY    24  12  60 NW9       30.55S WCI  14
FORT KNOX      CLOUDY    22  12  65 NW8       30.52R WCI  13
$$

KYZ035>037-039>044-047>052-055>060-089>105-091100-
NORTHEAST KENTUCKY

CITY           SKY/WX    TMP DP  RH WIND       PRES   REMARKS
LEXINGTON      FLURRIES  22  15  75 W10       30.49S WCI  11
COVINGTON      CLOUDY    21  14  74 W9        30.47S WCI  11
FRANKFORT      CLOUDY    22  11  62 VRB6      30.50S WCI  14
$$

KYZ054-064>069-076>088-106>120-091100-
SOUTHEAST KENTUCKY

CITY           SKY/WX    TMP DP  RH WIND       PRES   REMARKS
JACKSON        CLOUDY    21  14  74 VRB3      30.44S
LONDON         CLOUDY    22  11  62 NW7       30.47R WCI  13
SOMERSET       CLOUDY    23  14  68 N6        30.52R WCI  16
MIDDLESBORO    CLOUDY    25  15  66 NW7       30.46R WCI  17
MONTICELLO     CLOUDY    24  16  71 NW7       30.52R WCI  16
$$




USA.gov is the U.S. government's official web portal to all federal, state and local government web resources and services.